Location: Guferjoch
(46.7462°N, 8.4506°E)
Time: 12:25:24
(UTC+00:00)

Cosmos 614 Rocket - Pass Details

Date: 14 July 2020
Orbit: 732 x 764 km, 74.1° (Epoch: 06 August)

Event Time Altitude Azimuth Distance (km) Brightness Sun altitude
Exits shadow 00:43:21 38° 172° (S) 1,116 4.4 -19.8°
Maximum altitude 00:45:09 63° 108° (ESE) 827 4.1 -19.7°
Drops below altitude 10° 00:50:13 10° 28° (NNE) 2,269 7.6 -19.4°
Sets 00:52:37 0° 25° (NNE) 3,202 8.9 -19.2°
